Location: Newark
(13.0328°N, 9.6142°E)
Time: 21:33:15
(UTC+00:00)

Envisat - Pass Details

Date: 22 October 2019
Orbit: 764 x 766 km, 98.1° (Epoch: 20 November)

Event Time Altitude Azimuth Distance (km) Brightness Sun altitude
Rises 17:45:36 0° 168° (SSE) 3,222 6.2 -12.0°
Reaches altitude 10° 17:47:54 10° 169° (SSE) 2,296 5.5 -12.5°
Maximum altitude 17:52:58 87° 259° (W) 769 3.0 -13.8°
Drops below altitude 10° 17:58:03 10° 347° (NNW) 2,297 5.5 -15.0°
Sets 18:00:21 0° 348° (NNW) 3,223 6.3 -15.5°
